{"data":{"norad_id":68115,"epoch":"2026-09-20T03:25:44.908032Z","epoch_age_seconds":86930,"freshness":"FRESH","line1":"1 68115U 26044Q   26263.14288088  .00019766  00000+0  61246-3 0  9995","line2":"2 68115  97.2836 222.1073 0003535 100.1818 259.9824 15.33466117 31381","mean_motion":15.33466117,"eccentricity":0.0003535,"inclination_deg":97.2836,"raan_deg":222.1073,"arg_perigee_deg":100.1818,"mean_anomaly_deg":259.9824,"bstar":0.00061246,"rev_number":3138,"period_min":93.904911496652,"perigee_km":463.06112713245,"apogee_km":467.89956459597,"semimajor_km":6843.6173458642,"source":"CELESTRAK","updated_at":"2026-09-20T09:00:43.788103Z"}}